Flag for Vietnam Weather past 2 weeks in Hanoi, Vietnam

72 °F

Broken clouds.

Feels Like: 75 °F
Forecast: 70 / 82 °F
Wind: 5 mph from Northeast

Location: Ha Noi Airport

Current Time: Nov 30, 2015 at 12:07:14 PM

Latest Report: Nov 30, 2015 at 11:30 AM

Visibility: N/A

Pressure: 30.09 "Hg

Humidity: 69%

Dew point: 61 °F

Location of HanoiLocation

Historic Weather in Hanoi — Graph


Hanoi temperature yesterday

Maximum temperature yesterday: 72 °F (at 10:00 AM)
Minimum temperature yesterday: 68 °F (at 12:00 AM)
Average temperature yesterday: 69 °F

Past Weeks' High & Low Weather Summary

High93 °F (Nov 17, 12:00 PM)94% (Nov 15, 11:00 PM)30.24 "Hg (Nov 15, 11:00 PM)
Low59 °F (Nov 26, 1:30 AM)39% (Nov 17, 1:00 PM)29.71 "Hg (Nov 16, 2:30 PM)
Average75 °F75%30.00 "Hg
* Reported Nov 15 10:00 AM — Nov 30 10:00 AM, Hanoi, Weather by CustomWeather, © 2015

Note: Actual official high and low records may vary slightly from our data, if they occured in-between our weather recording intervals... More about our weather records


Hanoi weather history for previous 24 hours

Time TempWeatherWind HumidityBarometerVisibility
10:00 AM
Mon, Nov 30
72 °FBroken clouds.7 mph65%30.15 "HgN/A
9:30 AM70 °FBroken clouds.7 mph73%30.15 "HgN/A
9:00 AM70 °FBroken clouds.6 mph69%30.15 "HgN/A
8:30 AM70 °FBroken clouds.6 mph73%30.15 "HgN/A
7:30 AM68 °FLight rain. Broken clouds.3 mph78%30.12 "HgN/A
7:00 AM68 °FBroken clouds.2 mph78%30.12 "HgN/A
6:30 AM68 °FPartly sunny.2 mph78%30.09 "Hg6 mi
6:00 AM68 °FPartly cloudy.No wind78%30.09 "HgN/A
5:30 AM68 °FPartly cloudy.2 mph78%30.09 "HgN/A
5:00 AM68 °FPartly cloudy.3 mph78%30.09 "HgN/A
4:30 AM68 °FPartly cloudy.6 mph73%30.09 "HgN/A
3:30 AM68 °FPartly cloudy.2 mph73%30.09 "HgN/A
3:00 AM68 °FPartly cloudy.5 mph73%30.09 "HgN/A
2:30 AM70 °FPartly cloudy.8 mph69%30.09 "HgN/A
2:00 AM70 °FPartly cloudy.6 mph69%30.12 "HgN/A
1:30 AM68 °FPartly cloudy.6 mph73%30.12 "HgN/A
1:00 AM70 °FPartly cloudy.5 mph69%30.12 "HgN/A
12:30 AM68 °FPartly cloudy.3 mph73%30.12 "HgN/A
12:00 AM70 °FPartly cloudy.3 mph69%30.12 "HgN/A
11:30 PM
Sun, Nov 29
70 °FPartly cloudy.3 mph69%30.12 "HgN/A
11:00 PM70 °FPartly cloudy.5 mph69%30.15 "HgN/A
10:30 PM70 °FPartly cloudy.5 mph73%30.15 "HgN/A
10:00 PM70 °FPartly cloudy.2 mph73%30.15 "HgN/A
9:30 PM70 °FPartly cloudy.6 mph73%30.15 "HgN/A
9:00 PM70 °FPartly cloudy.6 mph69%30.15 "HgN/A
8:30 PM70 °FPartly cloudy.6 mph73%30.15 "HgN/A
8:00 PM70 °FPartly cloudy.3 mph73%30.12 "HgN/A
7:30 PM70 °FPartly cloudy.5 mph73%30.12 "HgN/A
7:00 PM70 °FPartly cloudy.6 mph73%30.12 "Hg6 mi
6:30 PM70 °FPartly cloudy.6 mph73%30.12 "Hg6 mi
6:00 PM70 °FPartly cloudy.6 mph73%30.12 "Hg6 mi
5:30 PM70 °FPartly cloudy.5 mph73%30.12 "Hg5 mi
4:30 PM70 °FPartly sunny.6 mph73%30.09 "Hg4 mi
4:00 PM70 °FPartly sunny.8 mph73%30.09 "Hg4 mi
3:30 PM72 °FPartly sunny.9 mph69%30.09 "Hg4 mi
3:00 PM70 °FPartly sunny.7 mph73%30.09 "Hg4 mi
1:30 PM70 °FBroken clouds.9 mph73%30.12 "Hg4 mi
1:00 PM70 °FBroken clouds.8 mph73%30.12 "Hg5 mi
12:00 PM72 °FBroken clouds.9 mph73%30.15 "Hg5 mi
Weather by CustomWeather, © 2015

See weather overviewHow to use our weather pages